Location: La Bastide
(43.1661°N, 1.2755°E)
Time: 10:13:03
(UTC+00:00)

ISS - Pass Details

Date: 20 February 2026
Orbit: 416 x 426 km, 51.6° (Epoch: 10 March)

Event Time Altitude Azimuth Distance (km) Brightness Sun altitude
Exits shadow 03:57:52 11° 54° (NE) 1,424 -0.3 -31.1°
Drops below altitude 10° 03:58:03 10° 54° (NE) 1,495 -0.2 -31.1°
Sets 04:00:09 0° 57° (ENE) 2,360 1.1 -30.7°
